Weather in El Bolson

Argentina     42°02′04″S   71°35′35″W
temp.,
°C
wind,
m/s
gust,
m/s
humid.,
%
clouds,
%
prec.,
mm/h
press.,
hPa
HPBL,
m
14 april, wed
wed1400:00+8nnw22935 0.0 101236
03:00+8nw239536 0.0 101149
06:00+6nw33962 0.0 101062
09:00+6nw249978 0.0 1011120
12:00+11wnw347855 0.0 1010706
15:00+12w3471100 0.1 1010646
18:00+9wnw3490100 0.4 1012250
21:00+8w239794 0.7 1014142
15 april, thu
thu1500:00+7wnw239883 0.0 101585
03:00+7w238896 0.1 1016117
06:00+7w2279100 0.0 101785
09:00+5w11853 0.0 101828
12:00+10w22590 0.0 1016750
15:00+15w23382 0.0 10121262
18:00+13wnw2344100 0.0 1012534
21:00+6wnw337994 0.0 101647
16 april, fri
fri1600:00+4wnw2295100 0.0 101742
03:00+3nw22974 0.0 101834
06:00+2nw229512 0.0 101923
09:00+2nnw22845 0.0 102060
12:00+11w124169 0.0 1018608
15:00+15wsw1235100 0.0 10161205
18:00+13wsw2247100 0.0 1016178
21:00+9nw1162100 0.0 101712
17 april, sat
sat1700:00+8nnw116375 0.0 101710
03:00+6n1174100 0.0 101710
06:00+5n227442 0.0 101612
09:00+5nnw1170100 0.0 101617
12:00+14w124386 0.0 1013536
15:00+17wnw232998 0.0 10101359
18:00+15w2342100 0.0 1009101
21:00+9wnw2267100 0.0 101241
18 april, sun
sun1800:00+8wnw237799 0.1 1011102
03:00+8wnw2487100 0.3 1011214
06:00+7nw3491100 1.3 1010290
09:00+6nnw3594100 4.2 1011279
12:00+7nnw2495100 4.3 1010233
15:00+9nnw3593100 5.5 1008288
18:00+8nw249798 0.9 1007183
21:00+8nw359889 0.9 1006161